Weather in Klyazminskiy Gorodok

Russia / Vladimir Oblast     56°26′46″N   41°30′27″E
В апреле 2022 года жителям России запретили посещать сайт meteo.paraplan.net по решению Генеральной прокуратуры. Аудитория сайта уменьшилась в 10 раз. Владельцы сайта не видят смысла в поддержке погодного сервера в таких условиях. Сайт будет закрыт в октябре.
temp.,
°C
wind,
m/s
gust,
m/s
humid.,
%
clouds,
%
prec.,
mm/h
press.,
hPa
HPBL,
m
3 october, mon
mon300:00+11ene3790100 0.0 1005135
03:00+12e41096100 0.1 1003264
06:00+12e4998100 0.0 1002279
09:00+15se61485100 0.3 1001705
12:00+18se71364100 0.0 1001964
15:00+17se81863100 0.0 10011581
18:00+13s71474100 0.2 10051254
21:00+10sse6137224 0.2 10081075
4 october, tue
tue400:00+11sse6127186 0.0 1010859
03:00+9sse614793 0.0 1011649
06:00+9se614835 0.0 1012545
09:00+11sse714708 0.0 1013783
12:00+15sse815565 0.0 10131778
15:00+16sse7135599 0.1 10131895
18:00+14sse71464100 0.1 10141509
21:00+11se51480100 1.0 1013683
5 october, wed
wed500:00+11sse61291100 1.4 1013731
03:00+10s4988100 2.0 1013486
06:00+10s51181100 0.5 10131102
09:00+10s51078100 0.8 10121182
12:00+9s4887100 1.0 10131246
15:00+8ssw4790100 1.6 1012754
18:00+7sw4688100 1.0 1014712
21:00+7wsw2590100 1.4 1013522
6 october, thu
thu600:00+6wsw4688100 0.6 1014740
03:00+6w3789100 0.9 1015548
06:00+5wsw369274 0.1 1015203
09:00+6wsw3688100 0.1 1016390
12:00+10w456844 0.1 10151087
15:00+10wsw456134 0.2 10151212
18:00+7sw3780100 0.0 1015244
21:00+7ssw4986100 0.0 1013401
7 october, fri
fri700:00+8sw41196100 0.7 1011560
03:00+10wsw51295100 1.3 1010604
06:00+10w5118957 0.1 1012641
09:00+9w5118174 0.1 1013816
12:00+10w61175100 0.0 1014976
15:00+10w7137681 0.0 10141120
18:00+10w6137731 0.1 1016844
21:00+10w613790 0.1 1017733